Del Rio, TX

9:53 AM CDT on July 20, 2017 (GMT -0500)
Del Rio International

Weather History for KDRT - April, 2013

Change the Weather History Date:

Saturday, April 27, 2013

  Actual Average Record
Temperature  
Mean Temperature 77 °F 74 °F  
Max Temperature 85 °F 86 °F 98 °F (2002)
Min Temperature 69 °F 63 °F 43 °F (1908)
Degree Days  
Heating Degree Days 0 0  
Month to date heating degree days 24 24  
Since 1 July heating degree days 1009 1374  
Cooling Degree Days 12 10  
Month to date cooling degree days 199 192  
Year to date cooling degree days 386 298  
Growing Degree Days 26 (Base 50)    
Moisture  
Dew Point 65 °F    
Average Humidity 71    
Maximum Humidity 90    
Minimum Humidity 51    
Precipitation  
Precipitation T in 0.07 in 0.83 in (1922)
Month to date precipitation 0.36 1.44  
Year to date precipitation 1.75 4.18  
Sea Level Pressure  
Sea Level Pressure 29.95 in    
Wind  
Wind Speed 8 mph (ESE)    
Max Wind Speed 17 mph    
Max Gust Speed 24 mph    
Visibility 9 miles    
Events      
T = Trace of Precipitation, MM = Missing Value Source: NWS Daily Summary

Daily Weather History Graph

Daily Weather History Graph

Search for Another Location

Airport or City:

Trip Planner

Search our weather history database for the weather conditions in past years. The results will help you decide how hot, cold, wet, or windy it might be!

Date:

Astronomy

Apr. 27, 2013 Rise Set
Actual Time 7:05 AM CDT 8:17 PM CDT
Civil Twilight 6:40 AM CDT 8:42 PM CDT
Nautical Twilight 6:10 AM CDT 9:12 PM CDT
Astronomical Twilight 5:39 AM CDT 9:43 PM CDT
Moon 10:40 PM CDT (4/27) 8:32 AM CDT (4/27)
Length of Visible Light 14h 02m
Length of Day
13h 12m
Waning Gibbous, 95% of the Moon is Illuminated
Apr 27
Waning Gibbous
May 2
Last Quarter
May 9
New
May 17
First Quarter
May 24
Full

Hourly Weather History & Observations

Time (CDT) Temp. Heat Index Dew Point Humidity Pressure Visibility Wind Dir Wind Speed Gust Speed Precip Events Conditions
12:53 AM 70.0 °F - 62.1 °F 76% 29.99 in 10.0 mi East 8.1 mph - N/A   Clear
1:53 AM 71.1 °F - 64.0 °F 78% 29.97 in 10.0 mi East 10.4 mph - N/A   Clear
2:53 AM 71.1 °F - 66.0 °F 84% 29.95 in 10.0 mi East 10.4 mph - N/A   Clear
3:10 AM 71.6 °F - 66.2 °F 83% 29.99 in 10.0 mi East 9.2 mph - N/A   Mostly Cloudy
3:53 AM 72.0 °F - 66.9 °F 84% 29.94 in 10.0 mi East 10.4 mph - N/A   Overcast
4:53 AM 71.1 °F - 66.9 °F 87% 29.94 in 9.0 mi ESE 11.5 mph 17.3 mph N/A   Overcast
5:22 AM 69.8 °F - 66.2 °F 88% 29.99 in 9.0 mi ESE 9.2 mph - N/A   Scattered Clouds
5:36 AM 69.8 °F - 66.2 °F 88% 29.99 in 8.0 mi East 6.9 mph - N/A   Partly Cloudy
5:53 AM 70.0 °F - 66.9 °F 90% 29.94 in 8.0 mi ESE 6.9 mph - N/A   Partly Cloudy
6:53 AM 69.1 °F - 66.0 °F 90% 29.95 in 7.0 mi East 4.6 mph - N/A   Clear
7:05 AM 69.8 °F - 66.2 °F 88% 30.00 in 7.0 mi East 4.6 mph - N/A   Mostly Cloudy
7:53 AM 70.0 °F - 66.9 °F 90% 29.98 in 5.0 mi East 4.6 mph - N/A   Overcast
8:53 AM 71.1 °F - 66.9 °F 87% 30.01 in 7.0 mi East 5.8 mph - N/A   Overcast
9:07 AM 71.6 °F - 66.2 °F 83% 30.05 in 7.0 mi ESE 6.9 mph - N/A   Overcast
9:53 AM 73.0 °F - 66.9 °F 81% 30.01 in 7.0 mi ESE 6.9 mph - N/A   Overcast
10:53 AM 73.9 °F - 66.0 °F 76% 30.01 in 8.0 mi East 6.9 mph - N/A   Overcast
11:53 AM 77.0 °F - 66.0 °F 69% 30.01 in 9.0 mi ENE 6.9 mph - N/A   Overcast
12:53 PM 78.1 °F - 66.0 °F 66% 30.00 in 10.0 mi East 6.9 mph - N/A   Overcast
1:28 PM 80.6 °F 82.7 °F 66.2 °F 61% 30.03 in 10.0 mi SE 10.4 mph - N/A   Mostly Cloudy
1:53 PM 81.0 °F 83.0 °F 66.0 °F 60% 29.97 in 10.0 mi SSE 11.5 mph 18.4 mph N/A   Scattered Clouds
2:53 PM 82.0 °F 83.8 °F 64.9 °F 56% 29.95 in 10.0 mi SE 6.9 mph 17.3 mph N/A   Overcast
3:53 PM 84.0 °F 85.8 °F 64.9 °F 53% 29.92 in 10.0 mi SSE 13.8 mph 20.7 mph N/A   Scattered Clouds
4:53 PM 84.0 °F 85.8 °F 64.9 °F 53% 29.88 in 10.0 mi South 12.7 mph 20.7 mph N/A   Clear
5:53 PM 84.0 °F 85.4 °F 64.0 °F 51% 29.86 in 10.0 mi SSE 12.7 mph - N/A   Partly Cloudy
6:53 PM 82.9 °F 84.0 °F 63.0 °F 51% 29.88 in 10.0 mi SSE 16.1 mph - N/A   Clear
7:53 PM 81.0 °F 82.2 °F 63.0 °F 54% 29.84 in 10.0 mi ESE 4.6 mph - N/A   Clear
8:53 PM 79.0 °F - 63.0 °F 58% 29.83 in 10.0 mi Calm Calm - N/A   Clear
9:53 PM 78.1 °F - 61.0 °F 56% 29.91 in 10.0 mi ENE 9.2 mph - N/A   Mostly Cloudy
10:53 PM 73.9 °F - 64.9 °F 73% 29.91 in 10.0 mi East 6.9 mph - 0.00 in   Mostly Cloudy
11:53 PM 75.0 °F - 63.0 °F 66% 29.91 in 10.0 mi ENE 8.1 mph - N/A   Scattered Clouds